Weather History for Elkins, WV

Change the Weather History Date:

Tuesday, April 1, 2014

  Actual Average Record
Temperature  
Mean Temperature 51 °F 45 °F  
Max Temperature 74 °F 58 °F 84 °F (2010)
Min Temperature 27 °F 33 °F 5 °F (1923)
Degree Days  
Heating Degree Days 14 20  
Month to date heating degree days 14 20  
Since 1 July heating degree days 5434 5121  
Cooling Degree Days 0 0  
Month to date cooling degree days 0 0  
Year to date cooling degree days 0 0  
Moisture  
Dew Point 30 °F    
Average Humidity 56    
Maximum Humidity 92    
Minimum Humidity 19    
Precipitation  
Precipitation 0.00 in 0.13 in 0.95 in (1944)
Month to date precipitation 0.00 0.13  
Year to date precipitation 9.45 10.42  
Snow  
Snow 0.00 in - - ()
Month to date snowfall 0.0  
Since 1 September snowfall 92.1  
Snow Depth 0.00 in    
Sea Level Pressure  
Sea Level Pressure 30.09 in    
Wind  
Wind Speed 5 mph (WSW)    
Max Wind Speed 22 mph    
Max Gust Speed 33 mph    
Visibility 10 miles    
Events      
T = Trace of Precipitation, MM = Missing Value Source: NWS Daily Summary

Daily Weather History Graph

Daily Weather History Graph

Search for Another Location

Airport:

Trip Planner

Search our weather history database for the weather conditions in past years. The results will help you decide how hot, cold, wet, or windy it might be!

Date:

Astronomy

Apr. 01, 2014 Rise Set
Actual Time 7:04 AM EDT 7:43 PM EDT
Civil Twilight 6:37 AM EDT 8:09 PM EDT
Nautical Twilight 6:05 AM EDT 8:41 PM EDT
Astronomical Twilight 5:33 AM EDT 9:14 PM EDT
Moon 8:06 AM EDT (4/1) 10:02 PM EDT (4/1)
Length of Visible Light 13h 32m
Length of Day
12h 38m
Waxing Crescent, 4% of the Moon is Illuminated
Apr 1
Waxing Crescent
Apr 7
First Quarter
Apr 15
Full
Apr 22
Last Quarter
Apr 29
New

Hourly Weather History & Observations

Time (EDT) Temp. Dew Point Humidity Pressure Visibility Wind Dir Wind Speed Gust Speed Precip Events Conditions
12:51 AM 30.9 °F 26.1 °F 82% 30.18 in 10.0 mi Calm Calm - N/A   Clear
1:51 AM 30.0 °F 26.1 °F 85% 30.17 in 10.0 mi Calm Calm - N/A   Clear
2:51 AM 28.0 °F 25.0 °F 88% 30.15 in 10.0 mi Calm Calm - N/A   Clear
3:51 AM 28.9 °F 26.1 °F 89% 30.14 in 10.0 mi Calm Calm - N/A   Clear
4:51 AM 30.0 °F 27.0 °F 88% 30.13 in 10.0 mi Calm Calm - N/A   Clear
5:51 AM 28.9 °F 26.1 °F 89% 30.14 in 10.0 mi Calm Calm - N/A   Clear
6:51 AM 28.0 °F 26.1 °F 92% 30.15 in 10.0 mi Calm Calm - N/A   Clear
7:51 AM 30.9 °F 28.0 °F 89% 30.18 in 10.0 mi Calm Calm - N/A   Overcast
8:51 AM 34.0 °F 28.9 °F 82% 30.18 in 10.0 mi Calm Calm - N/A   Clear
9:51 AM 39.9 °F 32.0 °F 73% 30.16 in 10.0 mi Calm Calm - N/A   Mostly Cloudy
10:51 AM 48.9 °F 37.9 °F 66% 30.12 in 10.0 mi Calm Calm - N/A   Scattered Clouds
11:51 AM 63.0 °F 37.0 °F 38% 30.07 in 10.0 mi South 8.1 mph 17.3 mph N/A   Mostly Cloudy
12:51 PM 68.0 °F 36.0 °F 31% 30.04 in 10.0 mi SW 16.1 mph 27.6 mph N/A   Partly Cloudy
1:51 PM 71.1 °F 37.0 °F 29% 30.01 in 10.0 mi WSW 10.4 mph 24.2 mph N/A   Clear
2:51 PM 72.0 °F 30.9 °F 22% 29.99 in 10.0 mi WSW 16.1 mph 29.9 mph N/A   Clear
3:51 PM 73.0 °F 32.0 °F 22% 29.99 in 10.0 mi WSW 19.6 mph 26.5 mph N/A   Clear
4:51 PM 72.0 °F 27.0 °F 19% 29.99 in 10.0 mi West 16.1 mph 26.5 mph N/A   Clear
5:51 PM 73.0 °F 28.9 °F 20% 29.99 in 10.0 mi WSW 16.1 mph 21.9 mph N/A   Clear
6:51 PM 70.0 °F 26.1 °F 19% 30.02 in 10.0 mi West 16.1 mph 23.0 mph N/A   Clear
7:51 PM 64.9 °F 27.0 °F 24% 30.04 in 10.0 mi West 4.6 mph - N/A   Clear
8:51 PM 63.0 °F 27.0 °F 26% 30.06 in 10.0 mi SW 4.6 mph - N/A   Clear
9:51 PM 48.0 °F 34.0 °F 58% 30.08 in 10.0 mi Calm Calm - N/A   Clear
10:51 PM 46.0 °F 34.0 °F 63% 30.07 in 10.0 mi Calm Calm - N/A   Clear
11:51 PM 46.9 °F 35.1 °F 63% 30.06 in 10.0 mi Calm Calm - N/A   Clear